Tue, 18 Jan 2022 13:28:18 UTC

Information for RPM lzo-2.08-14.el8.ppc64le.rpm

ID11182
Namelzo
Version2.08
Release14.el8
Epoch
Archppc64le
SummaryData compression library with very fast (de)compression
DescriptionLZO is a portable lossless data compression library written in ANSI C. It offers pretty fast compression and very fast decompression. Decompression requires no memory. In addition there are slower compression levels achieving a quite competitive compression ratio while still decompressing at this very high speed.
Build Time2019-05-11 15:21:03 GMT
Size69796
fa1d9cfb1ccf31313f1a2fef0fcfa730
LicenseGPLv2+
Buildrootdist-c8-build-1802-147
Provides
liblzo2.so.2()(64bit)
lzo = 2.08-14.el8
lzo(ppc-64) = 2.08-14.el8
Obsoletes No Obsoletes
Conflicts No Conflicts
Requires
libc.so.6()(64bit)
libc.so.6(GLIBC_2.17)(64bit)
rpmlib(CompressedFileNames) <= 3.0.4-1
rpmlib(FileDigests) <= 4.6.0-1
rpmlib(PayloadFilesHavePrefix) <= 4.0-1
rpmlib(PayloadIsXz) <= 5.2-1
rtld(GNU_HASH)
Recommends No Recommends
Suggests No Suggests
Supplements No Supplements
Enhances No Enhances
Files
1 through 11 of 11
Name ascending sort Size
/usr/lib/.build-id0
/usr/lib/.build-id/ac0
/usr/lib/.build-id/ac/f7a90e31a059899403ea6d991056b8ae8d858d38
/usr/lib64/liblzo2.so.216
/usr/lib64/liblzo2.so.2.0.0226224
/usr/share/doc/lzo0
/usr/share/doc/lzo/AUTHORS112
/usr/share/doc/lzo/NEWS12279
/usr/share/doc/lzo/THANKS690
/usr/share/licenses/lzo0
/usr/share/licenses/lzo/COPYING18092
Component of
Page:
1 through 50 of 835 >>>
Buildroot descending sort Created State
dist-c8-build-81978-30317 2022-01-13 17:44:35 expired
dist-c8-build-81975-30317 2022-01-13 17:07:16 expired
dist-c8-build-81881-30317 2022-01-11 15:59:41 expired
dist-c8-build-81878-30317 2022-01-11 15:24:28 expired
dist-c8-build-81662-30317 2022-01-04 15:33:00 expired
dist-c8-build-81659-30317 2022-01-04 14:57:31 expired
dist-c8-stream-build-81567-32021 2021-12-28 07:05:55 expired
dist-c8-build-81519-30317 2021-12-22 16:23:43 expired
dist-c8-build-81514-30317 2021-12-22 15:46:24 expired
dist-c8-build-81475-30317 2021-12-22 06:26:06 expired
dist-c8-build-81474-30317 2021-12-22 05:51:07 expired
dist-c8_5-updates-build-81411-31791 2021-12-21 20:14:25 expired
dist-c8-stream-build-81099-31551 2021-12-16 11:06:20 expired
dist-c8-stream-build-81038-31539 2021-12-15 05:04:41 expired
dist-c8-build-80998-30317 2021-12-14 03:21:57 expired
dist-c8-build-80995-30317 2021-12-14 02:48:01 expired
dist-c8-build-80991-30317 2021-12-14 02:29:52 expired
dist-c8-build-80988-30317 2021-12-14 01:53:20 expired
dist-c8-build-80980-30317 2021-12-13 22:23:38 expired
dist-c8-build-80976-30317 2021-12-13 21:46:20 expired
dist-c8-stream-build-80874-31356 2021-12-12 05:05:48 expired
dist-c8-build-80759-30317 2021-12-09 23:06:57 expired
dist-c8-build-80750-30317 2021-12-09 22:31:28 expired
dist-c8-stream-build-80649-31183 2021-12-08 07:05:30 expired
dist-c8-build-80608-30317 2021-12-06 16:12:59 expired
dist-c8-build-80605-30317 2021-12-06 15:37:47 expired
dist-c8-stream-build-80534-31045 2021-12-04 07:08:22 expired
dist-c8-build-80328-30317 2021-12-02 23:35:43 expired
dist-c8-build-80325-30317 2021-12-02 23:00:34 expired
dist-c8-build-80322-30317 2021-12-02 22:56:10 expired
dist-c8-stream-build-80266-30809 2021-12-02 17:30:08 expired
dist-c8-stream-build-80244-30809 2021-12-02 17:21:55 expired
dist-c8_5-updates-build-80150-30642 2021-12-02 16:17:41 expired
dist-c8-stream-build-80027-30723 2021-11-24 05:05:30 expired
dist-c8-stream-build-79991-30699 2021-11-23 17:05:56 expired
dist-c8-build-79896-30317 2021-11-17 22:09:19 expired
dist-c8-build-79892-30317 2021-11-17 21:32:48 expired
dist-c8_4-updates-build-79832-30542 2021-11-15 16:48:34 expired
dist-c8-build-79758-30317 2021-11-13 01:04:21 expired
dist-c8-build-79757-30317 2021-11-13 01:04:21 expired
dist-c8-build-79750-30317 2021-11-13 00:24:36 expired
dist-c8-build-79749-30317 2021-11-13 00:24:36 expired
dist-c8-build-79745-30317 2021-11-13 00:09:31 expired
dist-c8-build-79743-30317 2021-11-12 23:33:29 expired
dist-c8-build-79573-29817 2021-11-12 03:07:15 expired
dist-c8-build-79572-29817 2021-11-12 03:07:15 expired
dist-c8-build-79569-29817 2021-11-12 02:31:07 expired
dist-c8-build-79568-29817 2021-11-12 02:31:06 expired
dist-c8-build-79482-29659 2021-11-11 07:58:23 expired
dist-c8-build-79481-29659 2021-11-11 07:58:22 expired